Location: Barruelo
(41.2448°N, 3.8231°W)
Time: 19:56:11
(UTC+00:00)

Cosmos 2219 - Pass Details

Date: 11 December 2025
Orbit: 831 x 860 km, 71.1° (Epoch: 11 January)

Event Time Altitude Azimuth Distance (km) Brightness Sun altitude
Rises 18:06:40 0° 343° (NNW) 3,434 6.4 -14.6°
Reaches altitude 10° 18:09:22 10° 353° (N) 2,498 5.5 -15.1°
Maximum altitude 18:14:34 34° 57° (ENE) 1,378 3.8 -16.0°
Enters shadow 18:18:10 18° 112° (ESE) 1,996 4.7 -16.7°
